Regional Weather Roundup
Issued by NWS

Home | Current Version | Previous Version | Text Only | Print | Product List | Glossary On
Versions: 1 2 3 4 5 6 7 8 9 10 11 12 13 14 15 16 17 18 19 20 21 22 23 24 25 26 27 28 29 30 31 32 33 34 35 36 37 38 39 40 41 42 43 44 45 46 47 48 49 50
000
ASUS43 KLSX 232159
RWRMO

WEATHER SUMMARY FOR MISSOURI
NATIONAL WEATHER SERVICE SPRINGFIELD MO
500 PM CDT WED APR 23 2014

NOTE: "FAIR" INDICATES FEW OR NO CLOUDS BELOW 12,000 FEET WITH NO
       SIGNIFICANT WEATHER AND/OR OBSTRUCTIONS TO VISIBILITY.
       CURRENT SKY AND/OR WEATHER CONDITIONS ARE NOT AVAILABLE FOR
       CHILLICOTHE AND FARMINGTON.

MOZ001>031-035>038-043-044-053-054-232300-
...NORTHERN AND WESTERN MISSOURI...

CITY           SKY/WX    TMP DP  RH WIND       PRES   REMARKS
KANSAS CTY INT CLOUDY    71  43  36 SE18G28   29.79F
KANSAS C DTWN  PTSUNNY   76  43  30 SE13G20   29.79F
LEE`S SUMMIT   MOSUNNY   73  43  33 SE17G26   29.81F
ST JOSEPH      CLOUDY    70  41  34 SE24G32   29.75F
CHILLICOTHE      N/A     68  39  34 E12G22    29.87F
KIRKSVILLE     CLOUDY    60  37  42 E18       29.96F

$$
MOZ066>068-077>081-088>096-101>105-232300-
...SOUTHWEST MISSOURI...

CITY           SKY/WX    TMP DP  RH WIND       PRES   REMARKS
SPRINGFIELD    SUNNY     77  42  28 SE17      29.87F
JOPLIN         SUNNY     80  46  30 S14G23    29.81F

$$
MOZ032>034-039>042-045>050-055>058-069>072-232300-
...CENTRAL MISSOURI...

CITY           SKY/WX    TMP DP  RH WIND       PRES   REMARKS
COLUMBIA       MOSUNNY   65  39  38 E14       29.92F
JEFFERSON CITY MOSUNNY   69  34  27 E14       29.90F
ROLLA          CLOUDY    72  33  24 E8        29.91F
SEDALIA        MOSUNNY   72  40  31 SE21G28   29.87F
OSAGE BEACH    MOSUNNY   73  36  25 SE9       29.90F

$$
MOZ051-052-059>065-232300-
...EAST CENTRAL MISSOURI...

CITY           SKY/WX    TMP DP  RH WIND       PRES   REMARKS
ST LOUIS INTL  CLOUDY    64  34  32 E12       30.01F
SPIRIT OF STL  CLOUDY    62  36  37 E10       29.98F
ST CHARLES     CLOUDY    62  35  36 SE8       30.00F

$$
MOZ072>076-082>087-097>100-106>115-232300-
...SOUTH CENTRAL AND SOUTHEAST MISSOURI...

CITY           SKY/WX    TMP DP  RH WIND       PRES   REMARKS
CAPE GIRARDEAU SUNNY     69  38  32 S7        29.98F
FARMINGTON     SUNNY     70  39  32 E9        30.00F
POPLAR BLUFF   SUNNY     71  39  31 E9        29.96F
WEST PLAINS    SUNNY     73  36  25 S13       29.94F

$$



USA.gov is the U.S. government's official web portal to all federal, state and local government web resources and services.